Missouri River (Missouri), Boonville (06909000)

StateMissouriLatestUnknown (47600 cfs)
RiverMissouri RiverRatingObservedEstimated
Updated2026-05-10 9:00 (34 minutes ago)Flood - The river is flooding. Obstacles can be treacherous or deadly. The river should be avoided at this stage for casual trips and definitely for the inexperienced. Trips should be attempted only with protective gear and equipment.Flood(none)(none)
Discharge47600 cfs (median: 87500 cfs)High - The river is high and potentially dangerous, especially for the young and / or inexperienced. Normal stream obstacles are sometimes difficult to navigate. Extended distances can be attempted, but canoe travel may not be advisable.High(none)(none)
Height8.9 feetGood - Conditions are ideal for a canoe or kayak. Boats typically will drag on fewer than one-quarter of riffles, if at all, and portages are unnecessary or rare. Normal float lengths can be attempted without a problem.Good(none)(none)
TrendRising (falling over 24 hours)Low - River is low but can still be floated. Some riffles are okay but most come with significant dragging and might need a portage. Float lengths should be reduced to accommodate low flow, dragging, and portages.Low(none)(none)
USGSExternal icon USGS Site (External icon Duck Duck Go Maps)Poor - River is too low to float comfortably. Most or all riffles will drag or must be portaged and some obstacles (such as slick shelf rock) cause undue problems. Avoid the river at this stage for casual paddling trips.Poor(none)(none)

Trending Data

Plot Image

Trips for Missouri River (Missouri), Boonville (06909000)

DateStartEndDistanceConditionDischargeHeightFishingDetails

A total of 0 rows are displayed.

Condition Descriptions

Fishing Conditions

Fish Species

Notes

Classic Trip List

The classic River Trips application is still available for use. It is updated with the new system using a data retrofit. It is no longer maintained. The original River Trips application is no longer updated (as of 1 Dec 2016) but can be checked for errors or for the condition of the data before it was converted to the new system.

Gauge Data Table

ObservationHeightDischargeMaximum
Discharge
Minimum
Discharge
Mean
Discharge
P05P10P20P25P50
(Median)
P75P80P90P95
2026-05-10 09:00 8.90 47600 330000 (2007) 37400 (1989) 101000 40100 43600 50500 53400 87500 132000 150000 187000 228000
2026-05-10 08:00 8.89 47500 330000 (2007) 37400 (1989) 101000 40100 43600 50500 53400 87500 132000 150000 187000 228000
2026-05-10 07:00 8.89 47500 330000 (2007) 37400 (1989) 101000 40100 43600 50500 53400 87500 132000 150000 187000 228000
2026-05-10 06:00 8.96 47900 330000 (2007) 37400 (1989) 101000 40100 43600 50500 53400 87500 132000 150000 187000 228000
2026-05-10 05:00 8.98 48000 330000 (2007) 37400 (1989) 101000 40100 43600 50500 53400 87500 132000 150000 187000 228000
2026-05-10 04:00 9.01 48200 330000 (2007) 37400 (1989) 101000 40100 43600 50500 53400 87500 132000 150000 187000 228000
2026-05-10 03:00 8.96 47900 330000 (2007) 37400 (1989) 101000 40100 43600 50500 53400 87500 132000 150000 187000 228000
2026-05-10 02:00 9.03 48300 330000 (2007) 37400 (1989) 101000 40100 43600 50500 53400 87500 132000 150000 187000 228000
2026-05-10 01:00 9.05 48400 330000 (2007) 37400 (1989) 101000 40100 43600 50500 53400 87500 132000 150000 187000 228000
2026-05-10 00:00 9.06 48500 330000 (2007) 37400 (1989) 101000 40100 43600 50500 53400 87500 132000 150000 187000 228000
2026-05-09 23:00 9.07 48500 330000 (2007) 37400 (1989) 101000 40100 43600 50500 53400 87500 132000 150000 187000 228000
2026-05-09 22:00 9.08 48600 303000 (2007) 37800 (1989) 100000 40200 42800 47800 50900 88400 138000 145000 188000 204000
2026-05-09 21:00 9.07 48500 303000 (2007) 37800 (1989) 100000 40200 42800 47800 50900 88400 138000 145000 188000 204000
2026-05-09 20:00 9.08 48600 303000 (2007) 37800 (1989) 100000 40200 42800 47800 50900 88400 138000 145000 188000 204000
2026-05-09 19:00 9.10 48700 303000 (2007) 37800 (1989) 100000 40200 42800 47800 50900 88400 138000 145000 188000 204000
2026-05-09 18:00 9.09 48700 303000 (2007) 37800 (1989) 100000 40200 42800 47800 50900 88400 138000 145000 188000 204000
2026-05-09 17:00 9.16 49000 303000 (2007) 37800 (1989) 100000 40200 42800 47800 50900 88400 138000 145000 188000 204000
2026-05-09 16:00 9.15 49000 303000 (2007) 37800 (1989) 100000 40200 42800 47800 50900 88400 138000 145000 188000 204000
2026-05-09 15:00 9.17 49100 303000 (2007) 37800 (1989) 100000 40200 42800 47800 50900 88400 138000 145000 188000 204000
2026-05-09 14:00 9.19 49200 303000 (2007) 37800 (1989) 100000 40200 42800 47800 50900 88400 138000 145000 188000 204000
2026-05-09 13:00 9.19 49200 303000 (2007) 37800 (1989) 100000 40200 42800 47800 50900 88400 138000 145000 188000 204000
2026-05-09 12:00 9.19 49200 303000 (2007) 37800 (1989) 100000 40200 42800 47800 50900 88400 138000 145000 188000 204000
2026-05-09 11:00 9.20 49300 303000 (2007) 37800 (1989) 100000 40200 42800 47800 50900 88400 138000 145000 188000 204000
2026-05-09 10:00 9.22 49400 303000 (2007) 37800 (1989) 100000 40200 42800 47800 50900 88400 138000 145000 188000 204000
2026-05-09 09:00 9.23 49400 303000 (2007) 37800 (1989) 100000 40200 42800 47800 50900 88400 138000 145000 188000 204000
2026-05-09 08:00 9.24 49500 303000 (2007) 37800 (1989) 100000 40200 42800 47800 50900 88400 138000 145000 188000 204000
2026-05-09 07:00 9.26 49600 303000 (2007) 37800 (1989) 100000 40200 42800 47800 50900 88400 138000 145000 188000 204000
2026-05-09 06:00 9.27 49700 303000 (2007) 37800 (1989) 100000 40200 42800 47800 50900 88400 138000 145000 188000 204000
2026-05-09 05:00 9.28 49700 303000 (2007) 37800 (1989) 100000 40200 42800 47800 50900 88400 138000 145000 188000 204000
2026-05-09 04:00 9.30 49800 303000 (2007) 37800 (1989) 100000 40200 42800 47800 50900 88400 138000 145000 188000 204000
2026-05-09 03:00 9.32 50000 303000 (2007) 37800 (1989) 100000 40200 42800 47800 50900 88400 138000 145000 188000 204000
2026-05-09 02:00 9.34 50100 303000 (2007) 37800 (1989) 100000 40200 42800 47800 50900 88400 138000 145000 188000 204000
2026-05-09 01:00 9.36 50200 303000 (2007) 37800 (1989) 100000 40200 42800 47800 50900 88400 138000 145000 188000 204000
2026-05-09 00:00 9.38 50300 303000 (2007) 37800 (1989) 100000 40200 42800 47800 50900 88400 138000 145000 188000 204000
2026-05-08 23:00 9.40 50400 303000 (2007) 37800 (1989) 100000 40200 42800 47800 50900 88400 138000 145000 188000 204000

A total of 35 rows are displayed for years 1958 through 2024.